When you browse on this site, cookies collect data to enhance your experience and personalize the content and advertising you see.
Visit our Privacy Policy to learn more. By continuing to use the site, you agree to this use of cookies and data.
  • In Österreich
  • Länderverzeichnis
  • Für 7 Tage
  • Wassertemperatur
  • Wetterkarte
  • News
  • Widgets
  • user-avatar
    Anmelden

    Stündliche Wetter Naschawar

    Heute, 18 August, Sonntag

    Zeit Temperatur Niederschläge Wind Luftdruck Luftfeuchtigkeit
    00:00 +31°C° 0.1 mm 1 m/S 723 mmHg 58%
    01:00 +31°C° 0.1 mm 1 m/S 723 mmHg 59%
    02:00 +30°C° 0.1 mm 1 m/S 722 mmHg 61%
    03:00 +30°C° 0.4 mm 1 m/S 722 mmHg 63%
    04:00 +29°C° 0.4 mm 1 m/S 722 mmHg 65%
    05:00 +29°C° 0 mm 1 m/S 722 mmHg 68%
    06:00 +30°C° 0.1 mm 1 m/S 722 mmHg 67%
    07:00 +30°C° 0.1 mm 1 m/S 723 mmHg 65%
    08:00 +30°C° 0.1 mm 1 m/S 723 mmHg 63%
    09:00 +32°C° 0 mm 1 m/S 723 mmHg 59%
    10:00 +33°C° 0 mm 1 m/S 723 mmHg 55%
    11:00 +34°C° 0 mm 1 m/S 723 mmHg 51%
    12:00 +36°C° 0 mm 2 m/S 723 mmHg 49%
    13:00 +37°C° 0 mm 2 m/S 723 mmHg 46%
    14:00 +37°C° 0 mm 2 m/S 723 mmHg 43%
    15:00 +37°C° 0.1 mm 2 m/S 723 mmHg 44%
    16:00 +37°C° 0.1 mm 3 m/S 723 mmHg 44%
    17:00 +37°C° 0.1 mm 3 m/S 723 mmHg 45%
    18:00 +36°C° 0.4 mm 3 m/S 723 mmHg 49%
    19:00 +35°C° 0.4 mm 3 m/S 723 mmHg 53%
    20:00 +34°C° 0.4 mm 3 m/S 724 mmHg 57%
    21:00 +32°C° 1 mm 2 m/S 724 mmHg 60%
    22:00 +31°C° 1 mm 1 m/S 725 mmHg 63%
    23:00 +31°C° 1 mm 1 m/S 725 mmHg 65%

    Morgen, 19 August, Montag

    Zeit Temperatur Niederschläge Wind Luftdruck Luftfeuchtigkeit
    00:00 +30°C° 1.7 mm 1 m/S 725 mmHg 67%
    01:00 +28°C° 1.7 mm 0 m/S 725 mmHg 70%
    02:00 +27°C° 1.7 mm 0 m/S 725 mmHg 72%
    03:00 +29°C° 1 mm 1 m/S 725 mmHg 73%
    04:00 +28°C° 1 mm 1 m/S 725 mmHg 75%
    05:00 +28°C° 1 mm 2 m/S 725 mmHg 77%
    06:00 +28°C° 0.6 mm 1 m/S 725 mmHg 75%
    07:00 +29°C° 0.6 mm 1 m/S 725 mmHg 73%
    08:00 +29°C° 0.6 mm 1 m/S 726 mmHg 70%
    09:00 +30°C° 0.2 mm 1 m/S 726 mmHg 66%
    10:00 +32°C° 0.2 mm 1 m/S 726 mmHg 61%
    11:00 +33°C° 0.2 mm 1 m/S 726 mmHg 56%
    12:00 +34°C° 0 mm 1 m/S 726 mmHg 52%
    13:00 +35°C° 0 mm 1 m/S 726 mmHg 48%
    14:00 +37°C° 0 mm 2 m/S 726 mmHg 43%
    15:00 +37°C° 0 mm 2 m/S 725 mmHg 43%
    16:00 +37°C° 0 mm 2 m/S 725 mmHg 42%
    17:00 +37°C° 0 mm 2 m/S 724 mmHg 41%
    18:00 +36°C° 0 mm 2 m/S 724 mmHg 46%
    19:00 +35°C° 0 mm 2 m/S 724 mmHg 51%
    20:00 +33°C° 0 mm 1 m/S 725 mmHg 55%
    21:00 +33°C° 0 mm 1 m/S 725 mmHg 57%
    22:00 +33°C° 0 mm 1 m/S 725 mmHg 58%
    23:00 +30°C° 0 mm 0 m/S 725 mmHg 60%

    übermorgen, 20 August, Dienstag

    Zeit Temperatur Niederschläge Wind Luftdruck Luftfeuchtigkeit
    00:00 +32°C° 0 mm 1 m/S 725 mmHg 60%
    01:00 +32°C° 0 mm 1 m/S 725 mmHg 61%
    02:00 +32°C° 0 mm 1 m/S 725 mmHg 61%
    03:00 +31°C° 0.2 mm 1 m/S 725 mmHg 63%
    04:00 +30°C° 0.2 mm 1 m/S 725 mmHg 64%
    05:00 +30°C° 0.2 mm 1 m/S 724 mmHg 66%
    06:00 +30°C° 0 mm 1 m/S 725 mmHg 63%
    07:00 +31°C° 0 mm 1 m/S 725 mmHg 59%
    08:00 +30°C° 0 mm 0 m/S 725 mmHg 56%
    09:00 +33°C° 0 mm 1 m/S 725 mmHg 52%
    10:00 +34°C° 0 mm 1 m/S 725 mmHg 48%
    11:00 +36°C° 0 mm 1 m/S 725 mmHg 43%
    12:00 +37°C° 0 mm 1 m/S 725 mmHg 40%
    13:00 +39°C° 0 mm 2 m/S 725 mmHg 36%
    14:00 +40°C° 0 mm 2 m/S 725 mmHg 32%
    15:00 +40°C° 0 mm 2 m/S 724 mmHg 32%
    16:00 +40°C° 0 mm 3 m/S 724 mmHg 32%
    17:00 +40°C° 0 mm 3 m/S 724 mmHg 32%
    18:00 +38°C° 0 mm 3 m/S 724 mmHg 36%
    19:00 +37°C° 0 mm 2 m/S 724 mmHg 40%
    20:00 +35°C° 0 mm 2 m/S 724 mmHg 44%
    21:00 +34°C° 0 mm 1 m/S 724 mmHg 46%
    22:00 +33°C° 0 mm 1 m/S 724 mmHg 47%
    23:00 +33°C° 0 mm 1 m/S 724 mmHg 49%

    21 August, Mittwoch

    Zeit Temperatur Niederschläge Wind Luftdruck Luftfeuchtigkeit
    00:00 +33°C° 0 mm 1 m/S 723 mmHg 50%
    01:00 +32°C° 0 mm 1 m/S 723 mmHg 51%
    02:00 +32°C° 0 mm 1 m/S 723 mmHg 52%
    03:00 +31°C° 0 mm 1 m/S 723 mmHg 53%
    04:00 +31°C° 0 mm 1 m/S 723 mmHg 55%
    05:00 +31°C° 0 mm 1 m/S 723 mmHg 56%
    06:00 +31°C° 0 mm 1 m/S 723 mmHg 54%
    07:00 +32°C° 0 mm 1 m/S 723 mmHg 51%
    08:00 +32°C° 0 mm 1 m/S 723 mmHg 48%
    09:00 +34°C° 0 mm 1 m/S 723 mmHg 44%
    10:00 +35°C° 0 mm 1 m/S 724 mmHg 41%
    11:00 +36°C° 0 mm 1 m/S 724 mmHg 38%
    12:00 +37°C° 0 mm 1 m/S 723 mmHg 35%
    13:00 +39°C° 0 mm 2 m/S 723 mmHg 32%
    14:00 +40°C° 0 mm 2 m/S 723 mmHg 29%
    15:00 +40°C° 0 mm 2 m/S 723 mmHg 29%
    16:00 +40°C° 0 mm 3 m/S 722 mmHg 29%
    17:00 +40°C° 0 mm 3 m/S 722 mmHg 29%
    18:00 +39°C° 0 mm 3 m/S 722 mmHg 34%
    19:00 +37°C° 0 mm 2 m/S 722 mmHg 39%
    20:00 +36°C° 0 mm 2 m/S 722 mmHg 44%
    21:00 +35°C° 0 mm 2 m/S 722 mmHg 46%
    22:00 +34°C° 0 mm 1 m/S 722 mmHg 48%
    23:00 +33°C° 0 mm 1 m/S 722 mmHg 50%

    22 August, Donnerstag

    Zeit Temperatur Niederschläge Wind Luftdruck Luftfeuchtigkeit
    00:00 +33°C° 0 mm 1 m/S 722 mmHg 51%
    01:00 +33°C° 0 mm 1 m/S 722 mmHg 53%
    02:00 +32°C° 0 mm 1 m/S 722 mmHg 54%
    03:00 +32°C° 0 mm 1 m/S 722 mmHg 55%
    04:00 +31°C° 0 mm 1 m/S 722 mmHg 56%
    05:00 +31°C° 0 mm 1 m/S 722 mmHg 58%
    06:00 +31°C° 0 mm 1 m/S 722 mmHg 56%
    07:00 +32°C° 0 mm 1 m/S 722 mmHg 53%
    08:00 +32°C° 0 mm 1 m/S 723 mmHg 51%
    09:00 +34°C° 0 mm 1 m/S 723 mmHg 48%
    10:00 +35°C° 0 mm 1 m/S 723 mmHg 44%
    11:00 +36°C° 0 mm 1 m/S 723 mmHg 40%
    12:00 +37°C° 0 mm 1 m/S 723 mmHg 37%
    13:00 +39°C° 0 mm 1 m/S 722 mmHg 35%
    14:00 +40°C° 0 mm 2 m/S 722 mmHg 32%
    15:00 +40°C° 0 mm 2 m/S 722 mmHg 31%
    16:00 +42°C° 0 mm 3 m/S 722 mmHg 31%
    17:00 +42°C° 0 mm 3 m/S 721 mmHg 30%
    18:00 +39°C° 0 mm 3 m/S 721 mmHg 34%
    19:00 +38°C° 0 mm 2 m/S 721 mmHg 38%
    20:00 +37°C° 0 mm 2 m/S 721 mmHg 43%
    21:00 +36°C° 0 mm 2 m/S 722 mmHg 44%
    22:00 +35°C° 0 mm 1 m/S 722 mmHg 46%
    23:00 +34°C° 0 mm 1 m/S 722 mmHg 47%

    23 August, Freitag

    Zeit Temperatur Niederschläge Wind Luftdruck Luftfeuchtigkeit
    00:00 +34°C° 0 mm 1 m/S 722 mmHg 49%
    01:00 +34°C° 0 mm 1 m/S 722 mmHg 50%
    02:00 +33°C° 0 mm 1 m/S 722 mmHg 51%
    03:00 +33°C° 0 mm 1 m/S 722 mmHg 53%
    04:00 +32°C° 0 mm 1 m/S 722 mmHg 54%
    05:00 +32°C° 0 mm 1 m/S 722 mmHg 55%
    06:00 +32°C° 0 mm 1 m/S 722 mmHg 53%
    07:00 +33°C° 0 mm 1 m/S 722 mmHg 51%
    08:00 +34°C° 0 mm 2 m/S 723 mmHg 48%
    09:00 +36°C° 0 mm 2 m/S 723 mmHg 45%
    10:00 +36°C° 0 mm 1 m/S 723 mmHg 42%
    11:00 +37°C° 0 mm 1 m/S 723 mmHg 39%
    12:00 +39°C° 0 mm 1 m/S 723 mmHg 37%
    13:00 +40°C° 0 mm 1 m/S 722 mmHg 34%
    14:00 +41°C° 0 mm 2 m/S 722 mmHg 31%
    15:00 +41°C° 0 mm 2 m/S 722 mmHg 30%
    16:00 +41°C° 0 mm 2 m/S 722 mmHg 30%
    17:00 +43°C° 0 mm 3 m/S 721 mmHg 29%
    18:00 +40°C° 0 mm 3 m/S 721 mmHg 33%
    19:00 +39°C° 0 mm 2 m/S 722 mmHg 37%
    20:00 +37°C° 0 mm 2 m/S 722 mmHg 41%
    21:00 +37°C° 0 mm 2 m/S 722 mmHg 43%
    22:00 +35°C° 0 mm 1 m/S 722 mmHg 46%
    23:00 +35°C° 0 mm 1 m/S 722 mmHg 48%
    Mehr zeigen